Starlink 32803

operational
NORAD ID: 63024 Int'l Des: 2025-032 Owner: SPXS Country: US Constellation: starlink
LEOCIRCULAR

Starlink 32803について

説明を読み込み中...

リアルタイム位置

3D地球を読み込み中...

次回通過

高度履歴

Altitude vs Time

uPlot chart will show altitude changes over time

軌道要素

1 63024U 25032V 25354.90645686 .00028669 00000-0 10463-2 0 9997
2 63024 43.0050 60.7555 0001860 277.8366 82.2275 15.27611178 48413
Epoch: Dec 20, 2025 • Age: 7 hours

現在のステータス

高度 493.1 km
速度 7.62 km/s
衛星直下点 -38.01°S, 129.01°E
打ち上げ日 Feb 15, 2025
運用期間 0.8 years
タイプ internet

技術仕様

分類 Payload
質量 730.00 kg
乾燥質量 700.00 kg
総質量 730.00 kg
長さ 0.30 m
直径 4.10 m
スパン 29.00 m
形状 Box + pan
製造者 SPXS
バスタイプ Starlink V2M
フェーズステータス In Orbit
所有者/国 SPXS/US

大規模コンステレーション

Loading constellations...